Tracking 18850 objects as of 22-Nov-2017
HD Live streaming from Space Station
objects crossing your sky now

WESTFORD NEEDLES

Track WESTFORD NEEDLES now!
10-day predictions
WESTFORD NEEDLES is classified as:


NORAD ID: 2997
Int'l Code: 1963-014AU
Perigee: 2,744.4 km
Apogee: 4,381.8 km
Inclination: 86.8 °
Period: 164.2 minutes
Semi major axis: 9934 km
RCS: 0.1993 m2 (medium)
Launch date: May 9, 1963
Source: United States (US)
Launch site: AIR FORCE WESTERN TEST RANGE (AFWTR)
aabbcc
Your satellite tracking list
Your tracking list is empty




NASA's NSSDC Master Catalog

Two Line Element Set (TLE):
1 02997U 63014AU  17320.05499686  .00000143  00000-0  40557-1 0  9991
2 02997  86.8434 182.7771 0824092 145.5444 220.1775  8.76819475 41573
Source of the keplerian elements: AFSPC